DL9SEC-13 Weather Reports


time (UTC)temp
C
wind
direction
speed
KPH
gust
KPH
rain 1hr
cm
rain 24hr
cm
rain mn
cm
humidity
%
barometer
mb
20260507131003 14 270 0.0 0.0 0.00 1.02 0.23 68 1017.8
20260507125502 14 315 6.4 8.0 0.00 1.02 0.23 68 1017.9
20260507124002 13 248 9.7 11.3 0.00 1.02 0.23 70 1017.8
20260507122502 13 270 8.0 8.0 0.00 1.02 0.23 72 1017.9
20260507121002 12 248 8.0 8.0 0.00 1.02 0.23 71 1017.8
20260507115502 12 270 8.0 8.0 0.00 1.02 0.23 77 1017.9
20260507114002 12 270 4.8 6.4 0.00 1.02 0.23 77 1017.9
20260507112503 12 270 6.4 6.4 0.00 1.02 0.23 78 1017.9
20260507111003 11 292 4.8 4.8 0.00 1.02 0.23 79 1018.0
20260507105503 12 270 4.8 4.8 0.00 1.02 0.23 80 1018.1
20260507104003 11 270 6.4 6.4 0.00 1.02 0.23 81 1017.8
20260507102503 11 270 9.7 9.7 0.00 1.02 0.23 81 1017.8
20260507101003 11 292 8.0 9.7 0.00 1.02 0.23 83 1017.8
20260507095503 11 292 8.0 9.7 0.00 1.02 0.23 84 1017.8
20260507094002 11 270 8.0 8.0 0.00 1.02 0.23 85 1017.6
20260507092502 10 292 6.4 6.4 0.00 1.02 0.23 90 1017.5
20260507091002 10 292 6.4 6.4 0.03 1.02 0.23 90 1017.3
20260507085502 10 270 6.4 8.0 0.08 1.02 0.23 91 1017.2
20260507084003 10 292 3.2 3.2 0.08 1.02 0.23 94 1017.1
20260507082503 10 248 0.0 0.0 0.08 0.99 0.23 93 1017.0
20260507081002 10 270 3.2 3.2 0.03 0.94 0.18 92 1016.9
20260507075503 10 270 6.4 8.0 0.03 0.94 0.15 92 1016.6
20260507074003 10 270 8.0 8.0 0.03 0.91 0.15 90 1016.4
20260507072503 10 248 3.2 3.2 0.03 0.91 0.10 91 1016.2
20260507071003 10 292 0.0 0.0 0.03 0.91 0.10 92 1016.0
20260507065502 10 248 0.0 0.0 0.08 0.91 0.10 92 1015.9
20260507064002 10 292 4.8 4.8 0.03 0.86 0.08 91 1015.7
20260507062502 10 292 4.8 4.8 0.03 0.86 0.08 91 1015.7
20260507061003 10 270 1.6 1.6 0.00 0.84 0.08 91 1015.7
20260507055502 10 292 3.2 3.2 0.03 0.84 0.03 91 1015.5
20260507054003 10 270 3.2 3.2 0.03 0.84 0.03 91 1015.3
20260507052503 10 248 4.8 4.8 0.03 0.84 0.03 91 1015.1
20260507051003 10 248 4.8 4.8 0.00 0.79 0.00 91 1015.0
20260507045503 10 248 0.0 0.0 0.00 0.79 0.00 90 1014.9
20260507044003 9 248 1.6 1.6 0.00 0.79 0.00 91 1014.6
20260507042502 9 248 0.0 0.0 0.00 0.79 0.00 93 1014.3
20260507041003 9 68 3.2 3.2 0.00 0.79 0.00 95 1014.3
20260507035503 9 90 0.0 0.0 0.00 0.79 0.00 95 1014.2
20260507034003 9 90 0.0 0.0 0.00 0.79 0.00 95 1014.0
20260507032502 8 90 0.0 0.0 0.00 0.79 0.00 95 1014.0
20260507031002 8 90 0.0 0.0 0.00 0.79 0.00 95 1013.9
20260507025504 8 90 0.0 0.0 0.00 0.79 0.00 95 1013.8
20260507024003 8 90 0.0 0.0 0.00 0.79 0.00 95 1013.8
20260507022502 8 90 0.0 0.0 0.00 0.79 0.00 95 1013.7
20260507021003 8 90 0.0 0.0 0.00 0.79 0.00 94 1013.7
20260507015502 8 90 0.0 0.0 0.00 0.79 0.00 93 1013.6
20260507014003 9 90 0.0 0.0 0.00 0.79 0.00 93 1013.5
20260507012502 9 90 0.0 0.0 0.00 0.79 0.00 93 1013.4
20260507011002 9 90 0.0 0.0 0.00 0.79 0.00 93 1013.3
20260507005502 9 90 0.0 0.0 0.00 0.79 0.00 92 1013.3
20260507004003 9 90 3.2 3.2 0.00 0.79 0.00 92 1013.4
20260507002502 9 270 0.0 0.0 0.00 0.79 0.00 94 1013.4
20260507001003 9 270 1.6 1.6 0.00 0.79 0.00 93 1013.4
20260506235503 9 270 1.6 1.6 0.00 0.79 0.00 92 1013.4
20260506234002 9 270 0.0 0.0 0.00 0.79 0.00 92 1013.5
20260506232503 10 270 0.0 0.0 0.00 0.79 0.00 92 1013.6
20260506231002 10 270 1.6 1.6 0.00 0.79 0.00 92 1013.5
20260506225503 10 270 0.0 0.0 0.00 0.79 0.00 90 1013.5
20260506224002 10 270 0.0 0.0 0.00 0.79 0.00 91 1013.3
20260506222502 10 270 0.0 0.0 0.00 0.79 0.00 90 1013.1
20260506221002 10 270 0.0 0.0 0.00 0.79 0.00 94 1013.0
20260506215504 10 270 0.0 0.0 0.00 0.79 0.79 93 1013.0
20260506214002 10 270 0.0 0.0 0.00 0.79 0.79 92 1013.0
20260506212502 10 270 0.0 0.0 0.00 0.79 0.79 95 1012.7
20260506211002 10 270 0.0 0.0 0.00 0.79 0.79 95 1012.7
20260506205502 10 270 0.0 0.0 0.00 0.79 0.79 95 1012.6
20260506204002 10 270 0.0 0.0 0.00 0.79 0.79 95 1012.7
20260506202503 10 270 0.0 0.0 0.00 0.79 0.79 95 1012.7
20260506201003 10 270 0.0 0.0 0.00 0.79 0.79 95 1012.5
20260506195503 10 270 0.0 0.0 0.03 0.79 0.79 95 1012.3
20260506194003 10 270 0.0 0.0 0.03 0.79 0.79 95 1012.3
20260506192503 10 270 0.0 0.0 0.03 0.79 0.79 94 1012.0
20260506191003 10 270 0.0 0.0 0.00 0.74 0.74 94 1011.8
20260506185504 10 270 0.0 0.0 0.08 0.74 0.74 93 1011.6
20260506184003 11 270 0.0 0.0 0.18 0.74 0.74 92 1011.5
20260506182504 11 270 0.0 0.0 0.38 0.74 0.74 91 1011.2
20260506181003 11 292 4.8 4.8 0.36 0.74 0.71 91 1011.3
20260506175502 11 292 3.2 3.2 0.38 0.74 0.66 94 1011.2
20260506174004 11 112 0.0 0.0 0.28 0.58 0.56 93 1010.9
20260506172502 11 112 0.0 0.0 0.15 0.43 0.38 93 1010.9
20260506171003 11 112 0.0 0.0 0.08 0.36 0.28 92 1010.7
20260506165502 11 112 0.0 0.0 0.08 0.36 0.28 91 1010.7
20260506164002 11 112 4.8 4.8 0.00 0.28 0.18 90 1010.8
20260506162502 12 292 3.2 3.2 0.00 0.28 0.18 90 1010.4
20260506161003 12 248 3.2 3.2 0.00 0.28 0.18 90 1010.3
20260506155503 12 270 6.4 8.0 0.00 0.28 0.18 90 1010.2
20260506154002 12 338 9.7 9.7 0.00 0.28 0.18 91 1009.9
20260506152503 13 292 11.3 12.9 0.03 0.28 0.18 92 1009.6
20260506151002 12 248 0.0 0.0 0.18 0.28 0.18 92 1009.7
20260506145505 12 90 0.0 0.0 0.18 0.28 0.18 91 1009.7
20260506144002 12 315 0.0 0.0 0.15 0.23 0.18 91 1009.5
20260506142502 15 248 17.7 20.9 0.00 0.08 0.00 78 1009.5
20260506141003 17 248 3.2 3.2 0.00 0.08 0.00 71 1008.8
20260506135503 17 248 3.2 3.2 0.00 0.08 0.00 68 1008.9
20260506134003 18 270 1.6 1.6 0.00 0.10 0.00 64 1008.7
20260506132503 19 270 0.0 0.0 0.00 0.10 0.00 63 1008.6